Time,TemperatureF,DewpointF,PressureIn,WindDirection,WindDirectionDegrees,WindSpeedMPH,WindSpeedGustMPH,Humidity,HourlyPrecipIn,Conditions,Clouds,dailyrainin,SoftwareType,DateUTC
2013-02-05 00:03:00,14.0,-9.9,29.50,WNW,291,6.0,8.0,33,0.00,CLR,CLR,0.00,WeatherDisplay:10.37,2013-02-05 05:03:00,
2013-02-05 00:08:00,14.0,-9.9,29.50,WNW,300,6.0,9.0,33,0.00,CLR,CLR,0.00,WeatherDisplay:10.37,2013-02-05 05:08:00,
2013-02-05 00:18:00,13.6,-10.2,29.50,WNW,287,6.0,12.0,33,0.00,CLR,CLR,0.00,WeatherDisplay:10.37,2013-02-05 05:18:00,
2013-02-05 00:25:00,13.6,-10.2,29.50,West,276,5.0,11.0,33,0.00,CLR,CLR,0.00,WeatherDisplay:10.37,2013-02-05 05:25:00,
2013-02-05 00:33:00,13.5,-10.4,29.50,WNW,289,5.0,6.0,33,0.00,CLR,CLR,0.00,WeatherDisplay:10.37,2013-02-05 05:33:00,
2013-02-05 00:38:00,13.5,-10.4,29.50,WNW,291,6.0,8.0,33,0.00,CLR,CLR,0.00,WeatherDisplay:10.37,2013-02-05 05:38:00,
2013-02-05 00:48:00,13.3,-9.9,29.50,West,281,5.0,9.0,34,0.00,CLR,CLR,0.00,WeatherDisplay:10.37,2013-02-05 05:48:00,
2013-02-05 00:53:00,13.3,-9.9,29.50,WNW,282,6.0,12.0,34,0.00,CLR,CLR,0.00,WeatherDisplay:10.37,2013-02-05 05:53:00,
2013-02-05 00:58:00,13.1,-10.1,29.50,West,281,5.0,10.0,34,0.00,CLR,CLR,0.00,WeatherDisplay:10.37,2013-02-05 05:58:00,
2013-02-05 01:03:00,12.9,-10.2,29.50,West,261,3.0,9.0,34,0.00,CLR,CLR,0.00,WeatherDisplay:10.37,2013-02-05 06:03:00,
2013-02-05 01:08:00,12.9,-10.2,29.50,WSW,257,6.0,9.0,34,0.00,CLR,CLR,0.00,WeatherDisplay:10.37,2013-02-05 06:08:00,
2013-02-05 01:18:00,12.9,-10.2,29.53,West,275,3.0,15.0,34,0.00,CLR,CLR,0.00,WeatherDisplay:10.37,2013-02-05 06:18:00,
2013-02-05 01:28:00,12.7,-10.4,29.53,West,259,7.0,12.0,34,0.00,CLR,CLR,0.00,WeatherDisplay:10.37,2013-02-05 06:28:00,
2013-02-05 01:38:00,12.7,-10.4,29.53,West,280,6.0,9.0,34,0.00,CLR,CLR,0.00,WeatherDisplay:10.37,2013-02-05 06:38:00,
2013-02-05 01:48:00,12.6,-10.6,29.53,WNW,285,3.0,9.0,34,0.00,CLR,CLR,0.00,WeatherDisplay:10.37,2013-02-05 06:48:00,
2013-02-05 01:58:00,12.6,-10.6,29.53,WNW,302,5.0,9.0,34,0.00,CLR,CLR,0.00,WeatherDisplay:10.37,2013-02-05 06:58:00,
2013-02-05 02:03:00,12.6,-10.6,29.53,NW,317,5.0,13.0,34,0.00,CLR,CLR,0.00,WeatherDisplay:10.37,2013-02-05 07:03:00,
2013-02-05 02:08:00,12.4,-10.7,29.53,NW,308,5.0,6.0,34,0.00,CLR,CLR,0.00,WeatherDisplay:10.37,2013-02-05 07:08:00,
2013-02-05 02:18:00,12.0,-11.0,29.53,WSW,257,0.0,4.0,34,0.00,CLR,CLR,0.00,WeatherDisplay:10.37,2013-02-05 07:18:00,
2013-02-05 02:28:00,11.6,-11.4,29.53,SW,232,1.0,5.0,34,0.00,CLR,CLR,0.00,WeatherDisplay:10.37,2013-02-05 07:28:00,
2013-02-05 02:38:00,11.3,-11.7,29.53,WNW,286,0.0,3.0,34,0.00,CLR,CLR,0.00,WeatherDisplay:10.37,2013-02-05 07:38:00,
2013-02-05 02:43:00,11.1,-11.8,29.53,WNW,288,3.0,6.0,34,0.00,CLR,CLR,0.00,WeatherDisplay:10.37,2013-02-05 07:43:00,
2013-02-05 02:48:00,10.9,-12.0,29.53,West,281,5.0,6.0,34,0.00,CLR,CLR,0.00,WeatherDisplay:10.37,2013-02-05 07:48:00,
2013-02-05 02:58:00,10.9,-12.0,29.53,WNW,292,2.0,4.0,34,0.00,CLR,CLR,0.00,WeatherDisplay:10.37,2013-02-05 07:58:00,
2013-02-05 03:03:00,10.8,-12.2,29.53,WNW,285,0.0,4.0,34,0.00,CLR,CLR,0.00,WeatherDisplay:10.37,2013-02-05 08:03:00,
2013-02-05 03:08:00,10.4,-12.5,29.53,West,281,0.0,4.0,34,0.00,CLR,CLR,0.00,WeatherDisplay:10.37,2013-02-05 08:08:00,
2013-02-05 03:18:00,10.0,-12.8,29.53,NW,305,0.0,3.0,34,0.00,CLR,CLR,0.00,WeatherDisplay:10.37,2013-02-05 08:18:00,
2013-02-05 03:28:00,9.9,-13.0,29.53,NNW,335,0.0,3.0,34,0.00,CLR,CLR,0.00,WeatherDisplay:10.37,2013-02-05 08:28:00,
2013-02-05 03:38:00,9.5,-13.3,29.56,North,350,0.0,0.0,34,0.00,CLR,CLR,0.00,WeatherDisplay:10.37,2013-02-05 08:38:00,
2013-02-05 03:48:00,8.7,-14.0,29.56,North,350,0.0,0.0,34,0.00,CLR,CLR,0.00,WeatherDisplay:10.37,2013-02-05 08:48:00,
2013-02-05 03:58:00,7.9,-14.7,29.56,North,350,0.0,0.0,34,0.00,CLR,CLR,0.00,WeatherDisplay:10.37,2013-02-05 08:58:00,
2013-02-05 04:03:00,7.5,-15.1,29.56,North,350,0.0,0.0,34,0.00,CLR,CLR,0.00,WeatherDisplay:10.37,2013-02-05 09:03:00,
2013-02-05 04:08:00,7.1,-15.4,29.56,North,350,0.0,0.0,34,0.00,CLR,CLR,0.00,WeatherDisplay:10.37,2013-02-05 09:08:00,
2013-02-05 04:18:00,6.6,-15.9,29.56,North,349,0.0,0.0,34,0.00,CLR,CLR,0.00,WeatherDisplay:10.37,2013-02-05 09:18:00,
2013-02-05 04:28:00,6.1,-16.3,29.56,NNW,348,0.0,0.0,34,0.00,CLR,CLR,0.00,WeatherDisplay:10.37,2013-02-05 09:28:00,
2013-02-05 04:38:00,5.7,-16.7,29.56,NNW,348,0.0,0.0,34,0.00,CLR,CLR,0.00,WeatherDisplay:10.37,2013-02-05 09:38:00,
2013-02-05 04:48:00,5.2,-17.1,29.59,NNW,348,0.0,0.0,34,0.00,CLR,CLR,0.00,WeatherDisplay:10.37,2013-02-05 09:48:00,
2013-02-05 04:58:00,5.0,-17.3,29.59,NNW,348,0.0,0.0,34,0.00,CLR,CLR,0.00,WeatherDisplay:10.37,2013-02-05 09:58:00,
2013-02-05 05:03:00,4.7,-17.6,29.59,NNW,348,0.0,0.0,34,0.00,CLR,CLR,0.00,WeatherDisplay:10.37,2013-02-05 10:03:00,
2013-02-05 05:08:00,4.6,-17.6,29.59,NNW,348,0.0,0.0,34,0.00,CLR,CLR,0.00,WeatherDisplay:10.37,2013-02-05 10:08:00,
2013-02-05 05:18:00,4.5,-17.8,29.59,NNW,348,0.0,0.0,34,0.00,CLR,CLR,0.00,WeatherDisplay:10.37,2013-02-05 10:18:00,
2013-02-05 05:28:00,4.1,-18.1,29.59,NNW,348,0.0,0.0,34,0.00,CLR,CLR,0.00,WeatherDisplay:10.37,2013-02-05 10:28:00,
2013-02-05 05:38:00,3.8,-18.4,29.59,NNW,348,0.0,0.0,34,0.00,CLR,CLR,0.00,WeatherDisplay:10.37,2013-02-05 10:38:00,
2013-02-05 05:48:00,3.6,-18.6,29.59,NNW,348,0.0,0.0,34,0.00,CLR,CLR,0.00,WeatherDisplay:10.37,2013-02-05 10:48:00,
2013-02-05 05:58:00,3.4,-18.8,29.59,NNW,348,0.0,0.0,34,0.00,CLR,CLR,0.00,WeatherDisplay:10.37,2013-02-05 10:58:00,
2013-02-05 06:03:00,3.2,-18.9,29.59,NNW,348,0.0,0.0,34,0.00,CLR,CLR,0.00,WeatherDisplay:10.37,2013-02-05 11:03:00,
2013-02-05 06:08:00,3.0,-19.1,29.59,NNW,348,0.0,0.0,34,0.00,CLR,CLR,0.00,WeatherDisplay:10.37,2013-02-05 11:08:00,
2013-02-05 06:18:00,2.8,-19.2,29.59,NNW,348,0.0,0.0,34,0.00,CLR,CLR,0.00,WeatherDisplay:10.37,2013-02-05 11:18:00,
2013-02-05 06:28:00,2.7,-19.4,29.59,NNW,348,0.0,0.0,34,0.00,CLR,CLR,0.00,WeatherDisplay:10.37,2013-02-05 11:28:00,
2013-02-05 06:38:00,2.5,-19.6,29.59,NNW,348,0.0,0.0,34,0.00,CLR,CLR,0.00,WeatherDisplay:10.37,2013-02-05 11:38:00,
2013-02-05 06:48:00,2.1,-19.9,29.62,NNW,348,0.0,0.0,34,0.00,CLR,CLR,0.00,WeatherDisplay:10.37,2013-02-05 11:48:00,
2013-02-05 06:58:00,1.9,-20.0,29.62,NNW,348,0.0,0.0,34,0.00,CLR,CLR,0.00,WeatherDisplay:10.37,2013-02-05 11:58:00,
2013-02-05 07:03:00,1.9,-20.0,29.62,NNW,348,0.0,0.0,34,0.00,CLR,CLR,0.00,WeatherDisplay:10.37,2013-02-05 12:03:00,
2013-02-05 07:08:00,1.9,-20.0,29.62,NNW,348,0.0,0.0,34,0.00,CLR,CLR,0.00,WeatherDisplay:10.37,2013-02-05 12:08:00,
2013-02-05 07:18:00,1.9,-20.0,29.62,NNW,348,0.0,0.0,34,0.00,CLR,CLR,0.00,WeatherDisplay:10.37,2013-02-05 12:18:00,
2013-02-05 07:24:00,2.1,-19.9,29.62,North,349,0.0,0.0,34,0.00,CLR,CLR,0.00,WeatherDisplay:10.37,2013-02-05 12:24:00,
2013-02-05 07:34:00,2.6,-19.5,29.62,North,349,0.0,0.0,34,0.00,CLR,CLR,0.00,WeatherDisplay:10.37,2013-02-05 12:34:00,
2013-02-05 07:39:00,2.8,-19.2,29.62,North,349,0.0,0.0,34,0.00,CLR,CLR,0.00,WeatherDisplay:10.37,2013-02-05 12:39:00,
2013-02-05 07:44:00,3.2,-18.9,29.62,North,349,0.0,0.0,34,0.00,CLR,CLR,0.00,WeatherDisplay:10.37,2013-02-05 12:44:00,
2013-02-05 07:54:00,4.0,-18.2,29.65,North,350,0.0,0.0,34,0.00,CLR,CLR,0.00,WeatherDisplay:10.37,2013-02-05 12:54:00,
2013-02-05 07:59:00,4.6,-17.7,29.65,North,350,0.0,0.0,34,0.00,CLR,CLR,0.00,WeatherDisplay:10.37,2013-02-05 12:59:00,
2013-02-05 08:04:00,5.4,-17.0,29.65,North,352,0.0,0.0,34,0.00,CLR,CLR,0.00,WeatherDisplay:10.37,2013-02-05 13:04:00,
2013-02-05 08:09:00,6.1,-16.3,29.65,NNE,20,0.0,0.0,34,0.00,CLR,CLR,0.00,WeatherDisplay:10.37,2013-02-05 13:09:00,
2013-02-05 08:19:00,7.2,-15.3,29.65,East,90,0.0,0.0,34,0.00,CLR,CLR,0.00,WeatherDisplay:10.37,2013-02-05 13:19:00,
2013-02-05 08:29:00,8.2,-14.4,29.65,ESE,112,0.0,3.0,34,0.00,CLR,CLR,0.00,WeatherDisplay:10.37,2013-02-05 13:29:00,
2013-02-05 08:39:00,9.1,-13.6,29.65,East,84,0.0,0.0,34,0.00,CLR,CLR,0.00,WeatherDisplay:10.37,2013-02-05 13:39:00,
2013-02-05 08:49:00,10.0,-12.8,29.65,NE,54,0.0,0.0,34,0.00,CLR,CLR,0.00,WeatherDisplay:10.37,2013-02-05 13:49:00,
2013-02-05 08:59:00,10.8,-12.2,29.65,NNW,345,2.0,6.0,34,0.00,CLR,CLR,0.00,WeatherDisplay:10.37,2013-02-05 13:59:00,
2013-02-05 09:04:00,11.1,-11.9,29.65,NNW,341,2.0,6.0,34,0.00,CLR,CLR,0.00,WeatherDisplay:10.37,2013-02-05 14:04:00,
2013-02-05 09:09:00,11.3,-11.7,29.65,NW,321,1.0,6.0,34,0.00,CLR,CLR,0.00,WeatherDisplay:10.37,2013-02-05 14:09:00,
2013-02-05 09:19:00,11.7,-10.8,29.65,NW,307,2.0,6.0,35,0.00,CLR,CLR,0.00,WeatherDisplay:10.37,2013-02-05 14:19:00,
2013-02-05 09:29:00,12.1,-10.4,29.65,NW,308,5.0,6.0,35,0.00,CLR,CLR,0.00,WeatherDisplay:10.37,2013-02-05 14:29:00,
2013-02-05 09:39:00,12.6,-9.9,29.65,NW,311,2.0,4.0,35,0.00,CLR,CLR,0.00,WeatherDisplay:10.37,2013-02-05 14:39:00,
2013-02-05 09:49:00,13.0,-10.2,29.65,West,259,1.0,4.0,34,0.00,CLR,CLR,0.00,WeatherDisplay:10.37,2013-02-05 14:49:00,
2013-02-05 09:59:00,13.4,-9.8,29.65,NW,311,2.0,4.0,34,0.00,CLR,CLR,0.00,WeatherDisplay:10.37,2013-02-05 14:59:00,
2013-02-05 10:04:00,13.6,-9.7,29.65,NW,324,2.0,4.0,34,0.00,CLR,CLR,0.00,WeatherDisplay:10.37,2013-02-05 15:04:00,
2013-02-05 10:09:00,13.7,-9.5,29.65,NW,319,0.0,4.0,34,0.00,CLR,CLR,0.00,WeatherDisplay:10.37,2013-02-05 15:09:00,
2013-02-05 10:19:00,14.4,-8.9,29.65,WSW,240,3.0,6.0,34,0.00,CLR,CLR,0.00,WeatherDisplay:10.37,2013-02-05 15:19:00,
2013-02-05 10:29:00,14.5,-8.8,29.65,SW,217,2.0,6.0,34,0.00,CLR,CLR,0.00,WeatherDisplay:10.37,2013-02-05 15:29:00,
2013-02-05 10:39:00,14.7,-8.6,29.65,NW,313,3.0,5.0,34,0.00,CLR,CLR,0.00,WeatherDisplay:10.37,2013-02-05 15:39:00,
2013-02-05 10:49:00,15.3,-8.8,29.65,WSW,247,1.0,4.0,33,0.00,CLR,CLR,0.00,WeatherDisplay:10.37,2013-02-05 15:49:00,
2013-02-05 10:58:00,15.8,-8.3,29.65,NW,304,1.0,8.0,33,0.00,CLR,CLR,0.00,WeatherDisplay:10.37,2013-02-05 15:58:00,
2013-02-05 11:04:00,15.8,-8.3,29.68,NW,311,3.0,6.0,33,0.00,CLR,CLR,0.00,WeatherDisplay:10.37,2013-02-05 16:04:00,
2013-02-05 11:09:00,15.8,-8.3,29.68,West,261,1.0,4.0,33,0.00,CLR,CLR,0.00,WeatherDisplay:10.37,2013-02-05 16:09:00,
2013-02-05 11:19:00,16.7,-7.5,29.65,WNW,296,5.0,6.0,33,0.00,CLR,CLR,0.00,WeatherDisplay:10.37,2013-02-05 16:19:00,
2013-02-05 11:29:00,16.7,-7.5,29.65,ENE,70,2.0,5.0,33,0.00,CLR,CLR,0.00,WeatherDisplay:10.37,2013-02-05 16:29:00,
2013-02-05 11:38:00,17.0,-7.3,29.65,NE,54,2.0,4.0,33,0.00,CLR,CLR,0.00,WeatherDisplay:10.37,2013-02-05 16:38:00,
2013-02-05 11:48:00,17.2,-7.0,29.65,WNW,298,5.0,7.0,33,0.00,CLR,CLR,0.00,WeatherDisplay:10.37,2013-02-05 16:48:00,
2013-02-05 11:58:00,17.4,-6.8,29.65,NNE,26,0.0,4.0,33,0.00,CLR,CLR,0.00,WeatherDisplay:10.37,2013-02-05 16:58:00,
2013-02-05 12:08:00,18.2,-6.2,29.65,West,274,3.0,6.0,33,0.00,CLR,CLR,0.00,WeatherDisplay:10.37,2013-02-05 17:08:00,
2013-02-05 12:18:00,18.7,-5.7,29.62,WNW,284,5.0,6.0,33,0.00,CLR,CLR,0.00,WeatherDisplay:10.37,2013-02-05 17:18:00,
2013-02-05 12:28:00,18.7,-6.4,29.62,NNW,331,6.0,8.0,32,0.00,CLR,CLR,0.00,WeatherDisplay:10.37,2013-02-05 17:28:00,
2013-02-05 12:38:00,19.0,-6.0,29.62,SW,236,1.0,5.0,32,0.00,CLR,CLR,0.00,WeatherDisplay:10.37,2013-02-05 17:38:00,
2013-02-05 12:48:00,19.4,-5.7,29.62,SW,230,6.0,6.0,32,0.00,CLR,CLR,0.00,WeatherDisplay:10.37,2013-02-05 17:48:00,
2013-02-05 12:58:00,19.8,-5.4,29.62,North,9,2.0,6.0,32,0.00,CLR,CLR,0.00,WeatherDisplay:10.37,2013-02-05 17:58:00,
2013-02-05 13:03:00,19.6,-5.6,29.62,NNE,13,1.0,5.0,32,0.00,CLR,CLR,0.00,WeatherDisplay:10.37,2013-02-05 18:03:00,
2013-02-05 13:08:00,19.9,-5.2,29.62,WNW,282,1.0,5.0,32,0.00,CLR,CLR,0.00,WeatherDisplay:10.37,2013-02-05 18:08:00,
2013-02-05 13:18:00,20.3,-4.9,29.62,East,101,2.0,4.0,32,0.00,CLR,CLR,0.00,WeatherDisplay:10.37,2013-02-05 18:18:00,
2013-02-05 13:28:00,21.0,-4.3,29.62,South,173,5.0,6.0,32,0.00,CLR,CLR,0.00,WeatherDisplay:10.37,2013-02-05 18:28:00,
2013-02-05 13:38:00,21.4,-4.0,29.62,SW,217,2.0,5.0,32,0.00,CLR,CLR,0.00,WeatherDisplay:10.37,2013-02-05 18:38:00,
2013-02-05 13:48:00,21.6,-3.8,29.62,South,188,5.0,8.0,32,0.00,CLR,CLR,0.00,WeatherDisplay:10.37,2013-02-05 18:48:00,
2013-02-05 13:58:00,21.9,-3.5,29.62,South,177,5.0,6.0,32,0.00,CLR,CLR,0.00,WeatherDisplay:10.37,2013-02-05 18:58:00,
2013-02-05 14:03:00,22.1,-3.3,29.62,South,191,3.0,6.0,32,0.00,CLR,CLR,0.00,WeatherDisplay:10.37,2013-02-05 19:03:00,
2013-02-05 14:08:00,22.1,-3.3,29.62,South,176,3.0,6.0,32,0.00,CLR,CLR,0.00,WeatherDisplay:10.37,2013-02-05 19:08:00,
2013-02-05 14:18:00,21.6,-3.8,29.62,SE,127,3.0,5.0,32,0.00,CLR,CLR,0.00,WeatherDisplay:10.37,2013-02-05 19:18:00,
2013-02-05 14:23:00,21.2,-4.1,29.62,ESE,115,3.0,5.0,32,0.00,CLR,CLR,0.00,WeatherDisplay:10.37,2013-02-05 19:23:00,
2013-02-05 14:28:00,21.4,-4.0,29.62,ESE,116,2.0,6.0,32,0.00,CLR,CLR,0.00,WeatherDisplay:10.37,2013-02-05 19:28:00,
2013-02-05 14:38:00,21.6,-3.8,29.62,South,176,3.0,6.0,32,0.00,CLR,CLR,0.00,WeatherDisplay:10.37,2013-02-05 19:38:00,
2013-02-05 14:48:00,21.7,-3.6,29.62,WNW,282,2.0,4.0,32,0.00,CLR,CLR,0.00,WeatherDisplay:10.37,2013-02-05 19:48:00,
2013-02-05 14:58:00,21.8,-3.6,29.62,WSW,256,5.0,6.0,32,0.00,CLR,CLR,0.00,WeatherDisplay:10.37,2013-02-05 19:58:00,
2013-02-05 15:03:00,21.9,-3.5,29.62,WSW,255,2.0,5.0,32,0.00,CLR,CLR,0.00,WeatherDisplay:10.37,2013-02-05 20:03:00,
2013-02-05 15:08:00,21.9,-3.5,29.62,WSW,254,0.0,4.0,32,0.00,CLR,CLR,0.00,WeatherDisplay:10.37,2013-02-05 20:08:00,
2013-02-05 15:18:00,21.9,-3.5,29.62,NE,55,0.0,4.0,32,0.00,CLR,CLR,0.00,WeatherDisplay:10.37,2013-02-05 20:18:00,
2013-02-05 15:28:00,22.1,-3.3,29.62,NW,321,2.0,3.0,32,0.00,CLR,CLR,0.00,WeatherDisplay:10.37,2013-02-05 20:28:00,
2013-02-05 15:38:00,21.9,-3.5,29.62,NNE,16,3.0,6.0,32,0.00,CLR,CLR,0.00,WeatherDisplay:10.37,2013-02-05 20:38:00,
2013-02-05 15:43:00,21.7,-3.6,29.62,SE,124,2.0,6.0,32,0.00,CLR,CLR,0.00,WeatherDisplay:10.37,2013-02-05 20:43:00,
2013-02-05 15:48:00,21.7,-3.6,29.62,ESE,112,3.0,4.0,32,0.00,CLR,CLR,0.00,WeatherDisplay:10.37,2013-02-05 20:48:00,
2013-02-05 15:58:00,21.6,-3.8,29.62,ENE,67,3.0,5.0,32,0.00,CLR,CLR,0.00,WeatherDisplay:10.37,2013-02-05 20:58:00,
2013-02-05 16:03:00,21.4,-4.0,29.62,East,82,0.0,3.0,32,0.00,CLR,CLR,0.00,WeatherDisplay:10.37,2013-02-05 21:03:00,
2013-02-05 16:08:00,21.4,-4.0,29.62,ESE,113,0.0,3.0,32,0.00,CLR,CLR,0.00,WeatherDisplay:10.37,2013-02-05 21:08:00,
2013-02-05 16:18:00,21.0,-4.3,29.62,ESE,116,0.0,4.0,32,0.00,CLR,CLR,0.00,WeatherDisplay:10.37,2013-02-05 21:18:00,
2013-02-05 16:28:00,20.7,-4.6,29.62,East,85,2.0,4.0,32,0.00,CLR,CLR,0.00,WeatherDisplay:10.37,2013-02-05 21:28:00,
2013-02-05 16:38:00,20.7,-4.6,29.62,East,90,0.0,3.0,32,0.00,CLR,CLR,0.00,WeatherDisplay:10.37,2013-02-05 21:38:00,
2013-02-05 16:43:00,20.5,-4.8,29.62,East,89,0.0,3.0,32,0.00,CLR,CLR,0.00,WeatherDisplay:10.37,2013-02-05 21:43:00,
2013-02-05 16:53:00,20.2,-5.0,29.62,ESE,114,0.0,0.0,32,0.00,CLR,CLR,0.00,WeatherDisplay:10.37,2013-02-05 21:53:00,
2013-02-05 16:58:00,19.9,-5.2,29.62,ESE,114,0.0,0.0,32,0.00,CLR,CLR,0.00,WeatherDisplay:10.37,2013-02-05 21:58:00,
2013-02-05 17:08:00,19.3,-5.8,29.62,ESE,114,0.0,0.0,32,0.00,CLR,CLR,0.00,WeatherDisplay:10.37,2013-02-05 22:08:00,
2013-02-05 17:18:00,18.7,-6.4,29.62,ESE,114,0.0,0.0,32,0.00,CLR,CLR,0.00,WeatherDisplay:10.37,2013-02-05 22:18:00,
2013-02-05 17:28:00,17.8,-7.2,29.62,ESE,114,0.0,0.0,32,0.00,CLR,CLR,0.00,WeatherDisplay:10.37,2013-02-05 22:28:00,
2013-02-05 17:38:00,17.1,-7.8,29.62,ESE,122,0.0,3.0,32,0.00,CLR,CLR,0.00,WeatherDisplay:10.37,2013-02-05 22:38:00,
2013-02-05 17:43:00,16.7,-7.5,29.62,SE,142,0.0,2.0,33,0.00,CLR,CLR,0.00,WeatherDisplay:10.37,2013-02-05 22:43:00,
2013-02-05 17:48:00,16.5,-7.6,29.62,SSE,150,0.0,4.0,33,0.00,CLR,CLR,0.00,WeatherDisplay:10.37,2013-02-05 22:48:00,
2013-02-05 17:58:00,16.3,-7.9,29.62,SE,146,0.0,0.0,33,0.00,CLR,CLR,0.00,WeatherDisplay:10.37,2013-02-05 22:58:00,
2013-02-05 18:03:00,16.2,-8.0,29.62,SE,146,0.0,0.0,33,0.00,CLR,CLR,0.00,WeatherDisplay:10.37,2013-02-05 23:03:00,
2013-02-05 18:08:00,16.2,-8.0,29.62,SE,146,0.0,0.0,33,0.00,CLR,CLR,0.00,WeatherDisplay:10.37,2013-02-05 23:08:00,
2013-02-05 18:13:00,16.0,-8.1,29.62,SE,146,0.0,0.0,33,0.00,CLR,CLR,0.00,WeatherDisplay:10.37,2013-02-05 23:13:00,
2013-02-05 18:18:00,15.8,-8.3,29.62,SE,146,0.0,0.0,33,0.00,CLR,CLR,0.00,WeatherDisplay:10.37,2013-02-05 23:18:00,
2013-02-05 18:28:00,15.6,-8.5,29.62,SE,146,0.0,0.0,33,0.00,CLR,CLR,0.00,WeatherDisplay:10.37,2013-02-05 23:28:00,
2013-02-05 18:38:00,15.1,-8.9,29.62,SE,146,0.0,0.0,33,0.00,CLR,CLR,0.00,WeatherDisplay:10.37,2013-02-05 23:38:00,
2013-02-05 18:48:00,15.1,-8.9,29.62,SE,146,0.0,0.0,33,0.00,CLR,CLR,0.00,WeatherDisplay:10.37,2013-02-05 23:48:00,
2013-02-05 18:58:00,15.0,-8.4,29.62,SE,146,0.0,0.0,34,0.00,CLR,CLR,0.00,WeatherDisplay:10.37,2013-02-05 23:58:00,
2013-02-05 19:03:00,14.9,-8.5,29.62,SE,146,0.0,0.0,34,0.00,CLR,CLR,0.00,WeatherDisplay:10.37,2013-02-06 00:03:00,
2013-02-05 19:08:00,14.9,-8.5,29.62,SE,146,0.0,0.0,34,0.00,CLR,CLR,0.00,WeatherDisplay:10.37,2013-02-06 00:08:00,
2013-02-05 19:18:00,15.1,-8.3,29.62,SE,146,0.0,0.0,34,0.00,CLR,CLR,0.00,WeatherDisplay:10.37,2013-02-06 00:18:00,
2013-02-05 19:24:00,15.1,-8.3,29.62,SE,146,0.0,0.0,34,0.00,CLR,CLR,0.00,WeatherDisplay:10.37,2013-02-06 00:24:00,
2013-02-05 19:29:00,15.1,-8.3,29.62,SE,146,0.0,0.0,34,0.00,CLR,CLR,0.00,WeatherDisplay:10.37,2013-02-06 00:29:00,
2013-02-05 19:39:00,15.3,-8.1,29.62,SE,146,0.0,0.0,34,0.00,CLR,CLR,0.00,WeatherDisplay:10.37,2013-02-06 00:39:00,
2013-02-05 19:49:00,15.3,-8.1,29.62,SE,146,0.0,0.0,34,0.00,CLR,CLR,0.00,WeatherDisplay:10.37,2013-02-06 00:49:00,
2013-02-05 19:59:00,15.3,-8.1,29.62,SE,146,0.0,0.0,34,0.00,CLR,CLR,0.00,WeatherDisplay:10.37,2013-02-06 00:59:00,
2013-02-05 20:04:00,15.3,-8.1,29.62,SE,146,0.0,0.0,34,0.00,CLR,CLR,0.00,WeatherDisplay:10.37,2013-02-06 01:04:00,
2013-02-05 20:09:00,15.1,-8.3,29.62,SE,146,0.0,0.0,34,0.00,CLR,CLR,0.00,WeatherDisplay:10.37,2013-02-06 01:09:00,
2013-02-05 20:19:00,15.1,-8.3,29.62,SE,146,0.0,0.0,34,0.00,CLR,CLR,0.00,WeatherDisplay:10.37,2013-02-06 01:19:00,
2013-02-05 20:29:00,14.9,-7.9,29.62,SE,146,0.0,0.0,35,0.00,CLR,CLR,0.00,WeatherDisplay:10.37,2013-02-06 01:29:00,
2013-02-05 20:39:00,14.5,-8.2,29.62,SE,146,0.0,0.0,35,0.00,CLR,CLR,0.00,WeatherDisplay:10.37,2013-02-06 01:39:00,
2013-02-05 20:44:00,14.5,-8.2,29.62,SE,146,0.0,0.0,35,0.00,CLR,CLR,0.00,WeatherDisplay:10.37,2013-02-06 01:44:00,
2013-02-05 20:49:00,14.5,-8.2,29.62,SE,146,0.0,0.0,35,0.00,CLR,CLR,0.00,WeatherDisplay:10.37,2013-02-06 01:49:00,
2013-02-05 20:59:00,14.5,-8.2,29.62,SE,146,0.0,0.0,35,0.00,CLR,CLR,0.00,WeatherDisplay:10.37,2013-02-06 01:59:00,
2013-02-05 21:04:00,14.5,-8.2,29.62,SE,146,0.0,0.0,35,0.00,CLR,CLR,0.00,WeatherDisplay:10.37,2013-02-06 02:04:00,
2013-02-05 21:09:00,14.4,-8.4,29.62,SE,146,0.0,0.0,35,0.00,CLR,CLR,0.00,WeatherDisplay:10.37,2013-02-06 02:09:00,
2013-02-05 21:19:00,14.4,-7.8,29.65,ESE,105,1.0,3.0,36,0.00,CLR,CLR,0.00,WeatherDisplay:10.37,2013-02-06 02:19:00,
2013-02-05 21:29:00,14.4,-7.8,29.65,NE,36,0.0,3.0,36,0.00,CLR,CLR,0.00,WeatherDisplay:10.37,2013-02-06 02:29:00,
2013-02-05 21:39:00,14.4,-7.8,29.62,NE,38,0.0,0.0,36,0.00,CLR,CLR,0.00,WeatherDisplay:10.37,2013-02-06 02:39:00,
2013-02-05 21:49:00,14.2,-7.4,29.65,NE,38,0.0,0.0,37,0.00,CLR,CLR,0.00,WeatherDisplay:10.37,2013-02-06 02:49:00,
2013-02-05 21:59:00,13.7,-7.8,29.65,NE,39,0.0,0.0,37,0.00,CLR,CLR,0.00,WeatherDisplay:10.37,2013-02-06 02:59:00,
2013-02-05 22:04:00,13.6,-7.9,29.62,NE,39,0.0,0.0,37,0.00,CLR,CLR,0.00,WeatherDisplay:10.37,2013-02-06 03:04:00,
2013-02-05 22:09:00,13.5,-8.0,29.62,NE,39,0.0,0.0,37,0.00,CLR,CLR,0.00,WeatherDisplay:10.37,2013-02-06 03:09:00,
2013-02-05 22:19:00,13.1,-7.8,29.62,NE,39,0.0,0.0,38,0.00,CLR,CLR,0.00,WeatherDisplay:10.37,2013-02-06 03:19:00,
2013-02-05 22:29:00,12.9,-8.0,29.62,NE,39,0.0,0.0,38,0.00,CLR,CLR,0.00,WeatherDisplay:10.37,2013-02-06 03:29:00,
2013-02-05 22:39:00,12.8,-8.1,29.62,NE,39,0.0,0.0,38,0.00,CLR,CLR,0.00,WeatherDisplay:10.37,2013-02-06 03:39:00,
2013-02-05 22:49:00,12.7,-7.6,29.62,NE,39,0.0,0.0,39,0.00,CLR,CLR,0.00,WeatherDisplay:10.37,2013-02-06 03:49:00,
2013-02-05 22:59:00,12.6,-7.8,29.62,NE,39,0.0,0.0,39,0.00,CLR,CLR,0.00,WeatherDisplay:10.37,2013-02-06 03:59:00,
2013-02-05 23:03:00,12.6,-7.8,29.62,NE,39,0.0,0.0,39,0.00,CLR,CLR,0.00,WeatherDisplay:10.37,2013-02-06 04:03:00,
2013-02-05 23:09:00,12.5,-7.8,29.62,NE,39,0.0,0.0,39,0.00,CLR,CLR,0.00,WeatherDisplay:10.37,2013-02-06 04:09:00,
2013-02-05 23:19:00,12.4,-7.4,29.62,NE,39,0.0,0.0,40,0.00,CLR,CLR,0.00,WeatherDisplay:10.37,2013-02-06 04:19:00,
2013-02-05 23:29:00,12.2,-6.6,29.62,NE,38,0.0,0.0,42,0.00,CLR,CLR,0.00,WeatherDisplay:10.37,2013-02-06 04:29:00,
2013-02-05 23:38:00,12.2,-6.6,29.62,NE,38,0.0,0.0,42,0.00,CLR,CLR,0.00,WeatherDisplay:10.37,2013-02-06 04:38:00,
2013-02-05 23:48:00,12.0,-6.7,29.62,NE,38,0.0,0.0,42,0.00,CLR,CLR,0.00,WeatherDisplay:10.37,2013-02-06 04:48:00,
2013-02-05 23:58:00,11.8,-6.9,29.62,NE,38,0.0,0.0,42,0.00,CLR,CLR,0.00,WeatherDisplay:10.37,2013-02-06 04:58:00,